Weather History for Watertown, NY

Change the Weather History Date:

Tuesday, May 28, 2013

  Actual Average Record
Temperature  
Mean Temperature 55 °F 58 °F  
Max Temperature 73 °F 69 °F 85 °F (1955)
Min Temperature 36 °F 47 °F 30 °F (1970)
Degree Days  
Heating Degree Days 10 7  
Month to date heating degree days 238 312  
Since 1 July heating degree days 6725 7455  
Cooling Degree Days 0 1  
Month to date cooling degree days 15 5  
Year to date cooling degree days 15 6  
Growing Degree Days 4 (Base 50)    
Moisture  
Dew Point 45 °F    
Average Humidity 60    
Maximum Humidity 92    
Minimum Humidity 27    
Precipitation  
Precipitation 0.04 in 0.10 in 1.06 in (1955)
Month to date precipitation 1.51 2.76  
Year to date precipitation 10.50 12.84  
Sea Level Pressure  
Sea Level Pressure 30.08 in    
Wind  
Wind Speed 4 mph (SE)    
Max Wind Speed 13 mph    
Max Gust Speed 20 mph    
Visibility 10 miles    
Events Rain    
T = Trace of Precipitation, MM = Missing Value Source: NWS Daily Summary

Daily Weather History Graph

Daily Weather History Graph

Search for Another Location

Airport:

Trip Planner

Search our weather history database for the weather conditions in past years. The results will help you decide how hot, cold, wet, or windy it might be!

Date:

Astronomy

May. 28, 2013 Rise Set
Actual Time 5:26 AM EDT 8:36 PM EDT
Civil Twilight 4:51 AM EDT 9:11 PM EDT
Nautical Twilight 4:06 AM EDT 9:57 PM EDT
Astronomical Twilight 3:12 AM EDT 10:52 PM EDT
Moon 11:54 PM EDT (5/28) 9:15 AM EDT (5/28)
Length of Visible Light 16h 20m
Length of Day
15h 10m
Waning Gibbous, 83% of the Moon is Illuminated
May 28
Waning Gibbous
May 31
Last Quarter
Jun 8
New
Jun 16
First Quarter
Jun 23
Full

Hourly Weather History & Observations

Time (EDT) Temp. Windchill Dew Point Humidity Pressure Visibility Wind Dir Wind Speed Gust Speed Precip Events Conditions
12:56 AM 39.0 °F - 36.0 °F 89% 30.18 in 10.0 mi Calm Calm - N/A   Clear
1:56 AM 39.9 °F - 37.0 °F 89% 30.16 in 10.0 mi Calm Calm - N/A   Clear
2:56 AM 39.0 °F 36.8 °F 36.0 °F 89% 30.16 in 10.0 mi East 3.5 mph - N/A   Clear
3:56 AM 37.0 °F - 35.1 °F 93% 30.16 in 10.0 mi Calm Calm - N/A   Clear
4:56 AM 37.9 °F 35.5 °F 35.1 °F 89% 30.15 in 10.0 mi East 3.5 mph - N/A   Clear
5:56 AM 41.0 °F 37.1 °F 36.0 °F 82% 30.14 in 10.0 mi East 5.8 mph - N/A   Clear
6:56 AM 46.9 °F - 39.0 °F 74% 30.14 in 10.0 mi East 3.5 mph - N/A   Clear
7:56 AM 55.0 °F - 41.0 °F 59% 30.14 in 10.0 mi Calm Calm - N/A   Clear
8:56 AM 64.0 °F - 42.1 °F 45% 30.13 in 10.0 mi ENE 3.5 mph - N/A   Clear
9:56 AM 69.1 °F - 39.0 °F 33% 30.12 in 10.0 mi Calm Calm - N/A   Clear
10:56 AM 71.1 °F - 35.1 °F 27% 30.11 in 10.0 mi Calm Calm - N/A   Clear
11:56 AM 72.0 °F - 39.9 °F 31% 30.10 in 10.0 mi SSW 6.9 mph - N/A   Clear
12:56 PM 71.1 °F - 39.9 °F 32% 30.10 in 10.0 mi South 6.9 mph - N/A   Clear
1:56 PM 71.1 °F - 42.1 °F 35% 30.10 in 10.0 mi SSE 10.4 mph - N/A   Clear
2:56 PM 71.1 °F - 46.0 °F 41% 30.08 in 10.0 mi SSE 6.9 mph - N/A   Clear
3:56 PM 70.0 °F - 48.9 °F 47% 30.07 in 10.0 mi SSE 5.8 mph - N/A   Mostly Cloudy
4:56 PM 66.0 °F - 52.0 °F 60% 30.07 in 10.0 mi South 3.5 mph - 0.00 in Rain Light Rain
5:56 PM 66.0 °F - 48.9 °F 54% 30.06 in 10.0 mi SSE 6.9 mph - 0.00 in   Overcast
6:56 PM 64.0 °F - 50.0 °F 60% 30.04 in 10.0 mi SE 4.6 mph - N/A   Overcast
7:56 PM 63.0 °F - 51.1 °F 65% 30.02 in 10.0 mi SSE 3.5 mph - N/A   Overcast
8:53 PM 62.6 °F - 53.6 °F 72% 30.03 in 10.0 mi South 5.8 mph - N/A   Overcast
8:56 PM 63.0 °F - 53.1 °F 70% 30.03 in 10.0 mi South 4.6 mph - N/A   Overcast
9:56 PM 61.0 °F - 54.0 °F 78% 30.02 in 10.0 mi SSE 3.5 mph - 0.00 in Rain Light Rain
10:10 PM 60.8 °F - 55.4 °F 82% 30.02 in 8.0 mi SSE 3.5 mph - 0.01 in Rain Light Rain
10:56 PM 59.0 °F - 55.9 °F 90% 30.00 in 8.0 mi Calm Calm - 0.04 in Rain Light Rain
11:25 PM 59.0 °F - 55.4 °F 88% 29.99 in 10.0 mi SE 3.5 mph - 0.00 in   Overcast
11:56 PM 60.1 °F - 55.9 °F 86% 29.97 in 10.0 mi SE 4.6 mph - 0.00 in   Overcast